Regional Weather Roundup
Issued by NWS

Home | Current Version | Previous Version | Text Only | Print | Product List | Glossary On
Versions: 1 2 3 4 5 6 7 8 9 10 11 12 13 14 15 16 17 18 19 20 21 22 23 24 25 26 27 28 29 30 31 32 33 34 35 36 37 38 39 40 41 42 43 44 45 46 47 48 49 50
000
ASUS43 KDTX 180410
RWRMI
MICHIGAN HOURLY REGIONAL WEATHER ROUNDUP
NATIONAL WEATHER SERVICE DETROIT/PONTIAC MI
1100 PM EST WED DEC 17 2014

NOTE: "FAIR" INDICATES FEW OR NO CLOUDS BELOW 12,000 FEET WITH NO
SIGNIFICANT WEATHER AND/OR OBSTRUCTION TO VISIBILITY.

MIZ047>049-052>055-059>063-066>070-074>076-081>083-180500-
SOUTHEAST LOWER MICHIGAN

CITY           SKY/WX    TMP DP  RH WIND       PRES   REMARKS
ADRIAN         CLOUDY    28  20  71 NW9       30.19R WCI  19
ALMA           CLOUDY    28  25  87 W12       30.14R WCI  18
ANN ARBOR      CLOUDY    28  18  66 W10       30.16R WCI  19
BAD AXE        CLOUDY    28  26  93 W10G16    30.07S WCI  19
CARO           CLOUDY    28  24  83 W12G17    30.09S WCI  18
DETROIT CITY   PTCLDY    29  17  61 W10       30.14S WCI  20
DETROIT        MOCLDY    28  18  66 W12       30.16S WCI  18
FLINT          CLOUDY    29  20  69 W15       30.12S WCI  18
GROSSE ILE     MOCLDY    28  19  69 W12       30.15R WCI  18
HILLSDALE      CLOUDY    28  22  79 NW10G17   30.16S WCI  18
HOWELL         CLOUDY    27  20  76 W10G18    30.12F WCI  17

CITY           SKY/WX    TMP DP  RH WIND       PRES   REMARKS
JACKSON        CLOUDY    27  19  72 W8        30.16S WCI  19
LAMBERTVILLE   CLOUDY    32  21  64 NW9       30.19S WCI  24
LANSING        CLOUDY    28  20  71 W12       30.16S WCI  18
LAPEER         CLOUDY    28  21  76 W10G18    30.10S WCI  18
MASON          CLOUDY    27  20  75 W9        30.15S WCI  18
MONROE         CLOUDY    28  19  69 W14       30.16S WCI  17
MT. CLEMENS    CLOUDY    28  19  68 W13       30.10S WCI  18
PONTIAC        CLOUDY    27  18  69 W16G23    30.10S WCI  15
PORT HOPE        N/A     30  23  75 NW12G21   30.03F WCI  20
PORT HURON     CLOUDY    28  21  74 W9        30.11R WCI  20
TRI CITIES     CLOUDY    30  24  78 W14       30.12R WCI  19
TROY           MOCLDY    30  19  63 W8        30.14S WCI  22
SAGINAW HB     CLOUDY    30  27  86 W14       30.11R WCI  20
$$
MIZ043>046-050>051-056>058-064>065-071>073-077>080-180500-
SOUTHWEST LOWER MICHIGAN

CITY           SKY/WX    TMP DP  RH WIND       PRES   REMARKS
BATTLE CREEK   CLOUDY    29  19  66 W9        30.19R WCI  20
BENTON HARBOR  CLOUDY    28  20  71 W7        30.24R WCI  21
BIG RAPIDS     CLOUDY    28  28  97 W7        30.12S WCI  21
COLDWATER      CLOUDY    28  21  75 W9        30.19R WCI  19
FREMONT        CLOUDY    29  23  79 W8        30.16S WCI  21
HOLLAND        CLOUDY    31  21  66 W10       30.21S WCI  22
GRAND RAPIDS   CLOUDY    29  21  72 W10       30.17S WCI  20
IONIA          CLOUDY    29  22  75 W9        30.15S WCI  21
KALAMAZOO      CLOUDY    29  20  69 W7        30.20S WCI  22
LUDINGTON      CLOUDY    31  26  80 NW12      30.17S WCI  22
MARSHALL       CLOUDY    27  19  73 W9        30.18R WCI  18
MOUNT PLEASANT CLOUDY    29  26  88 W7        30.11R WCI  22
MUSKEGON       FLURRIES  31  22  69 NW7       30.19S WCI  24
SOUTH HAVEN    CLOUDY    31  21  67 NW8       30.22S WCI  23
$$
MIZ016>042-180500-
NORTHERN LOWER MICHIGAN

CITY           SKY/WX    TMP DP  RH WIND       PRES   REMARKS
ALPENA         CLOUDY    26  21  81 NW13G21   30.08R WCI  15
BEAVER ISLAND  CLOUDY    26  23  88 N9G16     30.15R WCI  17
BELLAIRE       CLOUDY    28  25  87 NW5       30.13R WCI  23
CADILLAC       CLOUDY    28  25  89 NW10G17   30.08S WCI  18
CHARLEVOIX     CLOUDY    28  25  90 N13       30.14F WCI  17
FRANKFORT      CLOUDY    31  28  90 NW5       30.15S FOG     WCI  26
GAYLORD        CLOUDY    23  22  96 NW6       30.06S WCI  16
GRAYLING       CLOUDY    28  26  91 NW9       30.08R WCI  19
HARBOR SPRINGS CLOUDY    26  22  86 CALM      30.11S
HOUGHTON LAKE  CLOUDY    26  23  88 NW10      30.07R WCI  16
MANISTEE       CLOUDY    30  25  80 N10       30.15S WCI  21
OSCODA         CLOUDY    27  23  86 NW8       30.07R WCI  19
PELLSTON       CLOUDY    25  21  85 N8        30.13R WCI  16
ROGERS CITY    CLOUDY    26  24  91 N9        30.10R WCI  16
TRAVERSE CITY  CLOUDY    31  26  82 NW12      30.12R WCI  22
$$
MIZ007>008-015-180500-
EASTERN UPPER MICHIGAN

CITY           SKY/WX    TMP DP  RH WIND       PRES   REMARKS
KINROSS        CLOUDY    21  19  93 N7        30.12R WCI  13
MACKINAC ISLAN CLOUDY    24  22  95 N12G17    30.11R WCI  13
NEWBERRY       CLOUDY    22  20  93 N9G16     30.14S WCI  12
S. S. MARIE    CLOUDY    21  14  74 N6        30.10F WCI  13
MUNISING         N/A     30  23  75 N20       30.19R WCI  17
$$
MIZ004>006-011>014-085-180500-
CENTRAL UPPER MICHIGAN

CITY           SKY/WX    TMP DP  RH WIND       PRES   REMARKS
MANISTIQUE     CLOUDY    26  24  90 N12       30.16R WCI  16
ESCANABA       CLOUDY    28  21  74 N10G20    30.18S WCI  19
MENOMINEE      CLOUDY    27  19  74 N9        30.20R WCI  17
SAWYER-GWINN   CLOUDY    25  22  87 N15G22    30.18R WCI  13
$$
MIZ001>003-009>011-084-180500-
WESTERN UPPER MICHIGAN

CITY           SKY/WX    TMP DP  RH WIND       PRES   REMARKS
IRON MOUNTAIN  CLOUDY    25  21  85 N12       30.18S WCI  14
HOUGHTON       PTCLDY    19  14  81 N6        30.25S WCI  11
COPPER HARBOR    N/A     27  19  72 E16       30.28R WCI  15
IRONWOOD       CLOUDY    21  18  86 NE8       30.23S WCI  12
$$

ABBREVIATIONS USED IN REMARKS
   TC - TEMPERATURE IN CELSIUS
  WCI - WIND CHILL INDEX
   HX - HEAT INDEX
  VSB - VISIBILITY



USA.gov is the U.S. government's official web portal to all federal, state and local government web resources and services.